Time,TemperatureF,DewpointF,PressureIn,WindDirection,WindDirectionDegrees,WindSpeedMPH,WindSpeedGustMPH,Humidity,HourlyPrecipIn,Conditions,Clouds,dailyrainin,SolarRadiationWatts/m^2,SoftwareType,DateUTC
2013-02-20 00:00:00,49.5,48.7,30.04,ESE,121,0.0,0.0,97,0.00,,,0.23,0.00,VWS V14.01,2013-02-20 05:00:00,
2013-02-20 00:05:00,49.2,48.4,30.04,South,177,0.0,1.1,97,0.00,,,0.00,0.00,VWS V14.01,2013-02-20 05:05:00,
2013-02-20 00:10:00,49.0,48.1,30.04,East,87,0.0,0.0,97,0.00,,,0.00,0.00,VWS V14.01,2013-02-20 05:10:00,
2013-02-20 00:15:00,48.7,47.8,30.04,North,358,0.0,0.0,97,0.00,,,0.00,0.00,VWS V14.01,2013-02-20 05:15:00,
2013-02-20 00:20:00,48.0,47.2,30.04,NNW,330,0.0,0.0,97,0.00,,,0.00,0.00,VWS V14.01,2013-02-20 05:20:00,
2013-02-20 00:25:00,47.5,46.7,30.04,NNW,330,0.0,0.0,97,0.00,,,0.00,0.00,VWS V14.01,2013-02-20 05:25:00,
2013-02-20 00:30:00,47.2,46.4,30.04,NNW,330,0.0,0.0,97,0.00,,,0.00,0.00,VWS V14.01,2013-02-20 05:30:00,
2013-02-20 00:35:00,47.0,46.2,30.04,NNW,333,0.0,0.0,97,0.00,,,0.00,0.00,VWS V14.01,2013-02-20 05:35:00,
2013-02-20 00:40:00,46.7,45.8,30.04,NNW,333,0.0,0.0,97,0.00,,,0.00,0.00,VWS V14.01,2013-02-20 05:40:00,
2013-02-20 00:45:00,46.7,45.8,30.05,NNW,333,0.0,0.0,97,0.00,,,0.00,0.00,VWS V14.01,2013-02-20 05:45:00,
2013-02-20 00:50:00,46.5,45.7,30.05,West,262,0.0,0.0,97,0.00,,,0.00,0.00,VWS V14.01,2013-02-20 05:50:00,
2013-02-20 00:55:00,46.5,45.8,30.05,NW,322,0.0,0.0,97,0.00,,,0.00,0.00,VWS V14.01,2013-02-20 05:55:00,
2013-02-20 01:00:00,46.0,45.2,30.05,NW,322,0.0,0.0,97,0.00,,,0.00,0.00,VWS V14.01,2013-02-20 06:00:00,
2013-02-20 01:05:00,45.5,44.7,30.05,NW,322,0.0,0.0,97,0.00,,,0.00,0.00,VWS V14.01,2013-02-20 06:05:00,
2013-02-20 01:10:00,45.2,44.5,30.06,NW,322,0.0,0.0,97,0.00,,,0.00,0.00,VWS V14.01,2013-02-20 06:10:00,
2013-02-20 01:15:00,45.3,44.5,30.06,NW,322,0.0,0.0,97,0.00,,,0.00,0.00,VWS V14.01,2013-02-20 06:15:00,
2013-02-20 01:20:00,45.3,44.8,30.06,NW,322,0.0,0.0,98,0.00,,,0.00,0.00,VWS V14.01,2013-02-20 06:20:00,
2013-02-20 01:25:00,45.0,44.2,30.06,NW,322,1.1,1.1,97,0.00,,,0.00,0.00,VWS V14.01,2013-02-20 06:25:00,
2013-02-20 01:30:00,45.5,44.9,30.06,WSW,254,0.0,0.0,98,0.00,,,0.00,0.00,VWS V14.01,2013-02-20 06:30:00,
2013-02-20 01:35:00,45.0,44.2,30.06,West,275,1.1,1.1,97,0.00,,,0.00,0.00,VWS V14.01,2013-02-20 06:35:00,
2013-02-20 01:40:00,45.2,44.5,30.06,WNW,289,0.0,0.0,97,0.00,,,0.00,0.00,VWS V14.01,2013-02-20 06:40:00,
2013-02-20 01:45:00,44.8,44.0,30.06,WNW,288,0.0,1.1,97,0.00,,,0.00,0.00,VWS V14.01,2013-02-20 06:45:00,
2013-02-20 01:50:00,44.8,44.3,30.06,NW,318,0.0,0.0,98,0.00,,,0.00,0.00,VWS V14.01,2013-02-20 06:50:00,
2013-02-20 01:55:00,44.7,43.8,30.06,NW,314,2.2,3.3,97,0.00,,,0.00,0.00,VWS V14.01,2013-02-20 06:55:00,
2013-02-20 02:00:00,44.5,43.8,30.06,West,275,1.1,2.2,97,0.00,,,0.00,0.00,VWS V14.01,2013-02-20 07:00:00,
2013-02-20 02:05:00,44.5,43.7,30.06,NW,305,0.0,0.0,97,0.00,,,0.00,0.00,VWS V14.01,2013-02-20 07:05:00,
2013-02-20 02:10:00,44.5,43.7,30.05,WNW,295,1.1,1.1,97,0.00,,,0.00,0.00,VWS V14.01,2013-02-20 07:10:00,
2013-02-20 02:15:00,44.5,43.7,30.05,NNW,341,0.0,2.2,97,0.00,,,0.00,0.00,VWS V14.01,2013-02-20 07:15:00,
2013-02-20 02:20:00,44.3,43.5,30.06,NW,310,1.1,2.2,97,0.00,,,0.00,0.00,VWS V14.01,2013-02-20 07:20:00,
2013-02-20 02:25:00,44.2,43.1,30.06,NW,307,0.0,4.4,96,0.00,,,0.00,0.00,VWS V14.01,2013-02-20 07:25:00,
2013-02-20 02:30:00,44.0,42.9,30.06,NW,326,0.0,1.1,96,0.00,,,0.00,0.00,VWS V14.01,2013-02-20 07:30:00,
2013-02-20 02:35:00,44.0,42.9,30.06,West,266,0.0,3.3,96,0.00,,,0.00,0.00,VWS V14.01,2013-02-20 07:35:00,
2013-02-20 02:40:00,44.0,42.6,30.06,WNW,299,0.0,2.2,95,0.00,,,0.00,0.00,VWS V14.01,2013-02-20 07:40:00,
2013-02-20 02:45:00,43.8,42.2,30.06,NW,308,0.0,2.2,94,0.00,,,0.00,0.00,VWS V14.01,2013-02-20 07:45:00,
2013-02-20 02:50:00,43.8,41.9,30.06,West,265,0.0,1.1,93,0.00,,,0.00,0.00,VWS V14.01,2013-02-20 07:50:00,
2013-02-20 02:55:00,43.7,41.5,30.06,NW,310,4.4,4.4,92,0.00,,,0.00,0.00,VWS V14.01,2013-02-20 07:55:00,
2013-02-20 03:00:00,43.3,40.9,30.06,WNW,303,1.1,2.2,91,0.00,,,0.00,0.00,VWS V14.01,2013-02-20 08:00:00,
2013-02-20 03:05:00,43.0,40.5,30.06,NNW,348,0.0,1.1,91,0.00,,,0.00,0.00,VWS V14.01,2013-02-20 08:05:00,
2013-02-20 03:10:00,43.0,40.3,30.06,ENE,75,0.0,1.1,90,0.00,,,0.00,0.00,VWS V14.01,2013-02-20 08:10:00,
2013-02-20 03:15:00,43.0,40.0,30.06,NNW,332,0.0,1.1,89,0.00,,,0.00,0.00,VWS V14.01,2013-02-20 08:15:00,
2013-02-20 03:20:00,42.8,39.5,30.06,NW,308,0.0,1.1,88,0.00,,,0.00,0.00,VWS V14.01,2013-02-20 08:20:00,
2013-02-20 03:25:00,42.5,39.2,30.06,NW,308,0.0,0.0,88,0.00,,,0.00,0.00,VWS V14.01,2013-02-20 08:25:00,
2013-02-20 03:30:00,42.2,38.9,30.06,WNW,302,1.1,1.1,88,0.00,,,0.00,0.00,VWS V14.01,2013-02-20 08:30:00,
2013-02-20 03:35:00,41.8,38.8,30.06,NW,318,1.1,1.1,89,0.00,,,0.00,0.00,VWS V14.01,2013-02-20 08:35:00,
2013-02-20 03:39:00,41.5,38.5,30.06,NW,311,0.0,1.1,89,0.00,,,0.00,0.00,VWS V14.01,2013-02-20 08:39:00,
2013-02-20 03:44:00,41.3,38.1,30.06,WNW,290,0.0,0.0,88,0.00,,,0.00,0.00,VWS V14.01,2013-02-20 08:44:00,
2013-02-20 03:49:00,41.3,38.1,30.06,WSW,251,1.1,1.1,88,0.00,,,0.00,0.00,VWS V14.01,2013-02-20 08:49:00,
2013-02-20 03:54:00,41.2,37.9,30.06,NW,314,0.0,2.2,88,0.00,,,0.00,0.00,VWS V14.01,2013-02-20 08:54:00,
2013-02-20 04:00:00,41.2,37.6,30.06,NNE,15,0.0,1.1,87,0.00,,,0.00,0.00,VWS V14.01,2013-02-20 09:00:00,
2013-02-20 04:05:00,41.0,37.5,30.07,NW,318,0.0,0.0,87,0.00,,,0.00,0.00,VWS V14.01,2013-02-20 09:05:00,
2013-02-20 04:10:00,40.8,37.2,30.07,WNW,298,0.0,0.0,87,0.00,,,0.00,0.00,VWS V14.01,2013-02-20 09:10:00,
2013-02-20 04:15:00,40.5,36.9,30.06,NW,316,0.0,1.1,87,0.00,,,0.00,0.00,VWS V14.01,2013-02-20 09:15:00,
2013-02-20 04:20:00,40.3,36.5,30.07,NW,311,0.0,1.1,86,0.00,,,0.00,0.00,VWS V14.01,2013-02-20 09:20:00,
2013-02-20 04:24:00,40.3,36.5,30.07,WNW,287,0.0,1.1,86,0.00,,,0.00,0.00,VWS V14.01,2013-02-20 09:24:00,
2013-02-20 04:29:00,40.3,36.2,30.07,WNW,287,1.1,1.1,85,0.00,,,0.00,0.00,VWS V14.01,2013-02-20 09:29:00,
2013-02-20 04:35:00,40.0,35.9,30.07,NNW,348,0.0,3.3,85,0.00,,,0.00,0.00,VWS V14.01,2013-02-20 09:35:00,
2013-02-20 04:39:00,39.8,35.6,30.07,NNW,348,0.0,0.0,85,0.00,,,0.00,0.00,VWS V14.01,2013-02-20 09:39:00,
2013-02-20 04:44:00,39.0,35.5,30.07,NNW,348,0.0,0.0,87,0.00,,,0.00,0.00,VWS V14.01,2013-02-20 09:44:00,
2013-02-20 04:49:00,38.5,35.2,30.07,West,273,1.1,1.1,88,0.00,,,0.00,0.00,VWS V14.01,2013-02-20 09:49:00,
2013-02-20 04:54:00,38.5,35.3,30.07,NNW,329,1.1,2.2,88,0.00,,,0.00,0.00,VWS V14.01,2013-02-20 09:54:00,
2013-02-20 04:59:00,38.5,35.2,30.07,NNW,329,0.0,0.0,88,0.00,,,0.00,0.00,VWS V14.01,2013-02-20 09:59:00,
2013-02-20 05:04:00,38.0,34.8,30.08,NNW,329,0.0,0.0,88,0.00,,,0.00,0.00,VWS V14.01,2013-02-20 10:04:00,
2013-02-20 05:09:00,37.8,34.8,30.08,NNW,329,0.0,0.0,89,0.00,,,0.00,0.00,VWS V14.01,2013-02-20 10:09:00,
2013-02-20 05:14:00,37.5,34.8,30.08,WNW,302,0.0,2.2,90,0.00,,,0.00,0.00,VWS V14.01,2013-02-20 10:14:00,
2013-02-20 05:19:00,37.2,34.5,30.08,WNW,302,0.0,1.1,90,0.00,,,0.00,0.00,VWS V14.01,2013-02-20 10:19:00,
2013-02-20 05:24:00,37.0,34.3,30.08,WNW,302,0.0,0.0,90,0.00,,,0.00,0.00,VWS V14.01,2013-02-20 10:24:00,
2013-02-20 05:29:00,36.8,34.4,30.09,NW,324,0.0,0.0,91,0.00,,,0.00,0.00,VWS V14.01,2013-02-20 10:29:00,
2013-02-20 05:34:00,36.8,34.4,30.09,NW,324,0.0,0.0,91,0.00,,,0.00,0.00,VWS V14.01,2013-02-20 10:34:00,
2013-02-20 05:39:00,36.8,34.4,30.09,NW,324,0.0,0.0,91,0.00,,,0.00,0.00,VWS V14.01,2013-02-20 10:39:00,
2013-02-20 05:44:00,36.3,34.0,30.08,NW,324,0.0,0.0,91,0.00,,,0.00,0.00,VWS V14.01,2013-02-20 10:44:00,
2013-02-20 05:49:00,36.2,33.8,30.08,NW,324,0.0,0.0,91,0.00,,,0.00,0.00,VWS V14.01,2013-02-20 10:49:00,
2013-02-20 05:54:00,36.2,33.8,30.08,NW,324,0.0,0.0,91,0.00,,,0.00,0.00,VWS V14.01,2013-02-20 10:54:00,
2013-02-20 05:59:00,36.2,33.8,30.08,NW,324,0.0,0.0,91,0.00,,,0.00,0.00,VWS V14.01,2013-02-20 10:59:00,
2013-02-20 06:04:00,35.8,33.5,30.09,NW,324,0.0,0.0,91,0.00,,,0.00,0.00,VWS V14.01,2013-02-20 11:04:00,
2013-02-20 06:09:00,35.7,33.6,30.09,NW,324,0.0,0.0,92,0.00,,,0.00,0.00,VWS V14.01,2013-02-20 11:09:00,
2013-02-20 06:14:00,35.5,33.5,30.09,NW,324,0.0,0.0,92,0.00,,,0.00,0.00,VWS V14.01,2013-02-20 11:14:00,
2013-02-20 06:19:00,35.3,33.5,30.09,NW,324,0.0,0.0,93,0.00,,,0.00,0.00,VWS V14.01,2013-02-20 11:19:00,
2013-02-20 06:24:00,35.0,33.2,30.10,NW,324,0.0,0.0,93,0.00,,,0.00,0.00,VWS V14.01,2013-02-20 11:24:00,
2013-02-20 06:29:00,34.8,32.9,30.10,NW,324,0.0,0.0,93,0.00,,,0.00,0.00,VWS V14.01,2013-02-20 11:29:00,
2013-02-20 06:34:00,34.3,32.5,30.10,NW,324,0.0,0.0,93,0.00,,,0.00,0.00,VWS V14.01,2013-02-20 11:34:00,
2013-02-20 06:39:00,34.2,32.7,30.10,NW,324,0.0,0.0,94,0.00,,,0.00,0.00,VWS V14.01,2013-02-20 11:39:00,
2013-02-20 06:44:00,34.0,32.5,30.10,NW,324,0.0,0.0,94,0.00,,,0.00,0.00,VWS V14.01,2013-02-20 11:44:00,
2013-02-20 06:49:00,33.8,32.2,30.10,NW,324,0.0,0.0,94,0.00,,,0.00,0.00,VWS V14.01,2013-02-20 11:49:00,
2013-02-20 06:54:00,33.8,32.2,30.10,NW,324,0.0,0.0,94,0.00,,,0.00,0.00,VWS V14.01,2013-02-20 11:54:00,
2013-02-20 06:59:00,33.7,32.1,30.11,NW,324,0.0,0.0,94,0.00,,,0.00,0.00,VWS V14.01,2013-02-20 11:59:00,
2013-02-20 07:04:00,33.3,31.8,30.11,NW,324,0.0,0.0,94,0.00,,,0.00,5.00,VWS V14.01,2013-02-20 12:04:00,
2013-02-20 07:09:00,33.3,32.1,30.11,NW,324,0.0,0.0,95,0.00,,,0.00,7.00,VWS V14.01,2013-02-20 12:09:00,
2013-02-20 07:14:00,33.2,32.0,30.11,NW,324,0.0,0.0,95,0.00,,,0.00,9.00,VWS V14.01,2013-02-20 12:14:00,
2013-02-20 07:19:00,33.2,31.9,30.12,NW,324,0.0,0.0,95,0.00,,,0.00,11.00,VWS V14.01,2013-02-20 12:19:00,
2013-02-20 07:24:00,33.2,32.0,30.12,NW,324,0.0,0.0,95,0.00,,,0.00,12.00,VWS V14.01,2013-02-20 12:24:00,
2013-02-20 07:29:00,33.3,32.1,30.13,NW,324,0.0,0.0,95,0.00,,,0.00,14.00,VWS V14.01,2013-02-20 12:29:00,
2013-02-20 07:34:00,33.5,32.5,30.13,NW,324,0.0,0.0,96,0.00,,,0.00,16.00,VWS V14.01,2013-02-20 12:34:00,
2013-02-20 07:39:00,33.8,32.7,30.14,SSW,200,2.2,2.2,96,0.00,,,0.00,16.00,VWS V14.01,2013-02-20 12:39:00,
2013-02-20 07:44:00,34.0,33.0,30.14,NW,316,1.1,2.2,96,0.00,,,0.00,18.00,VWS V14.01,2013-02-20 12:44:00,
2013-02-20 07:49:00,34.2,33.2,30.14,WSW,252,1.1,1.1,96,0.01,,,0.01,19.00,VWS V14.01,2013-02-20 12:49:00,
2013-02-20 07:54:00,34.8,33.8,30.15,North,353,2.2,3.3,96,0.01,,,0.01,21.00,VWS V14.01,2013-02-20 12:54:00,
2013-02-20 07:59:00,35.3,34.3,30.15,West,280,0.0,0.0,96,0.01,,,0.01,23.00,VWS V14.01,2013-02-20 12:59:00,
2013-02-20 08:04:00,36.2,35.1,30.15,WNW,299,2.2,2.2,96,0.01,,,0.01,23.00,VWS V14.01,2013-02-20 13:04:00,
2013-02-20 08:09:00,36.8,35.3,30.15,SW,229,0.0,0.0,94,0.01,,,0.01,25.00,VWS V14.01,2013-02-20 13:09:00,
2013-02-20 08:14:00,37.7,35.0,30.15,NNW,348,1.1,3.3,90,0.01,,,0.01,25.00,VWS V14.01,2013-02-20 13:14:00,
2013-02-20 08:19:00,38.3,34.5,30.15,NNW,339,2.2,3.3,86,0.01,,,0.01,26.00,VWS V14.01,2013-02-20 13:19:00,
2013-02-20 08:24:00,39.2,34.5,30.15,WNW,290,0.0,3.3,83,0.01,,,0.01,26.00,VWS V14.01,2013-02-20 13:24:00,
2013-02-20 08:29:00,39.8,34.4,30.15,NW,322,4.4,5.5,81,0.01,,,0.01,28.00,VWS V14.01,2013-02-20 13:29:00,
2013-02-20 08:34:00,40.2,34.2,30.15,NW,305,2.2,2.2,79,0.01,,,0.01,28.00,VWS V14.01,2013-02-20 13:34:00,
2013-02-20 08:39:00,40.7,34.7,30.15,North,353,1.1,2.2,79,0.01,,,0.01,28.00,VWS V14.01,2013-02-20 13:39:00,
2013-02-20 08:44:00,41.0,34.7,30.15,North,353,1.1,1.1,78,0.01,,,0.01,30.00,VWS V14.01,2013-02-20 13:44:00,
2013-02-20 08:49:00,41.5,34.8,30.15,NNW,343,1.1,1.1,77,0.00,,,0.01,30.00,VWS V14.01,2013-02-20 13:49:00,
2013-02-20 08:54:00,42.0,34.3,30.15,NW,305,2.2,4.4,74,0.00,,,0.01,32.00,VWS V14.01,2013-02-20 13:54:00,
2013-02-20 08:59:00,42.2,34.2,30.15,West,267,1.1,4.4,73,0.00,,,0.01,32.00,VWS V14.01,2013-02-20 13:59:00,
2013-02-20 09:04:00,42.7,34.6,30.15,NNW,343,0.0,2.2,73,0.00,,,0.01,32.00,VWS V14.01,2013-02-20 14:04:00,
2013-02-20 09:09:00,43.0,34.3,30.15,NNW,348,0.0,0.0,71,0.00,,,0.01,33.00,VWS V14.01,2013-02-20 14:09:00,
2013-02-20 09:14:00,43.5,35.0,30.15,NNW,348,0.0,1.1,72,0.00,,,0.01,33.00,VWS V14.01,2013-02-20 14:14:00,
2013-02-20 09:19:00,44.0,35.2,30.16,North,10,0.0,2.2,71,0.00,,,0.01,33.00,VWS V14.01,2013-02-20 14:19:00,
2013-02-20 09:24:00,44.5,34.2,30.16,NW,321,0.0,0.0,67,0.00,,,0.01,35.00,VWS V14.01,2013-02-20 14:24:00,
2013-02-20 09:29:00,44.5,33.9,30.16,NNW,328,2.2,4.4,66,0.00,,,0.01,35.00,VWS V14.01,2013-02-20 14:29:00,
2013-02-20 09:34:00,44.8,33.3,30.15,West,274,1.1,3.3,64,0.00,,,0.01,39.00,VWS V14.01,2013-02-20 14:34:00,
2013-02-20 09:39:00,45.5,34.9,30.15,WNW,298,1.1,3.3,66,0.00,,,0.01,44.00,VWS V14.01,2013-02-20 14:39:00,
2013-02-20 09:44:00,46.2,35.8,30.15,NNW,337,2.2,4.4,67,0.00,,,0.01,67.00,VWS V14.01,2013-02-20 14:44:00,
2013-02-20 09:49:00,46.2,34.4,30.15,North,4,0.0,1.1,63,0.00,,,0.01,44.00,VWS V14.01,2013-02-20 14:49:00,
2013-02-20 09:54:00,47.0,33.5,30.15,North,2,2.2,3.3,59,0.00,,,0.01,46.00,VWS V14.01,2013-02-20 14:54:00,
2013-02-20 09:59:00,47.2,31.8,30.15,NE,52,4.4,5.5,55,0.00,,,0.01,42.00,VWS V14.01,2013-02-20 14:59:00,
2013-02-20 10:04:00,47.3,32.0,30.14,NW,310,1.1,1.1,55,0.00,,,0.01,209.00,VWS V14.01,2013-02-20 15:04:00,
2013-02-20 10:09:00,47.5,30.7,30.14,NW,324,1.1,4.4,52,0.00,,,0.01,552.00,VWS V14.01,2013-02-20 15:09:00,
2013-02-20 10:14:00,48.5,32.6,30.14,WNW,302,1.1,3.3,54,0.00,,,0.01,564.00,VWS V14.01,2013-02-20 15:14:00,
2013-02-20 10:19:00,48.3,31.1,30.14,North,358,2.2,2.2,51,0.00,,,0.01,578.00,VWS V14.01,2013-02-20 15:19:00,
2013-02-20 10:24:00,49.0,34.4,30.14,NNW,328,4.4,5.5,57,0.00,,,0.01,594.00,VWS V14.01,2013-02-20 15:24:00,
2013-02-20 10:29:00,49.2,30.8,30.14,NW,316,3.3,3.3,49,0.00,,,0.01,603.00,VWS V14.01,2013-02-20 15:29:00,
2013-02-20 10:34:00,49.0,30.6,30.14,NE,49,1.1,2.2,49,0.00,,,0.01,613.00,VWS V14.01,2013-02-20 15:34:00,
2013-02-20 10:39:00,49.3,32.0,30.14,NNE,16,2.2,4.4,51,0.00,,,0.01,628.00,VWS V14.01,2013-02-20 15:39:00,
2013-02-20 10:44:00,49.5,30.2,30.14,NNE,16,0.0,1.1,47,0.00,,,0.01,638.00,VWS V14.01,2013-02-20 15:44:00,
2013-02-20 10:49:00,50.0,31.1,30.14,NNW,348,0.0,1.1,48,0.00,,,0.01,649.00,VWS V14.01,2013-02-20 15:49:00,
2013-02-20 10:54:00,51.2,33.2,30.14,SE,144,0.0,0.0,50,0.00,,,0.01,661.00,VWS V14.01,2013-02-20 15:54:00,
2013-02-20 10:59:00,51.0,30.5,30.14,NNE,17,2.2,2.2,45,0.00,,,0.01,670.00,VWS V14.01,2013-02-20 15:59:00,
2013-02-20 11:04:00,50.8,32.3,30.15,NNE,32,3.3,3.3,49,0.00,,,0.01,680.00,VWS V14.01,2013-02-20 16:04:00,
2013-02-20 11:09:00,50.5,30.5,30.15,NNE,12,2.2,3.3,46,0.00,,,0.01,694.00,VWS V14.01,2013-02-20 16:09:00,
2013-02-20 11:14:00,51.8,31.2,30.15,West,259,1.1,1.1,45,0.00,,,0.01,703.00,VWS V14.01,2013-02-20 16:14:00,
2013-02-20 11:19:00,52.3,30.0,30.15,NNW,348,0.0,2.2,42,0.00,,,0.01,710.00,VWS V14.01,2013-02-20 16:19:00,
2013-02-20 11:24:00,52.5,30.1,30.15,NW,314,3.3,3.3,42,0.00,,,0.01,721.00,VWS V14.01,2013-02-20 16:24:00,
2013-02-20 11:29:00,51.8,29.4,30.14,West,279,3.3,3.3,42,0.00,,,0.01,729.00,VWS V14.01,2013-02-20 16:29:00,
2013-02-20 11:34:00,52.2,31.5,30.14,West,268,3.3,3.3,45,0.00,,,0.01,735.00,VWS V14.01,2013-02-20 16:34:00,
2013-02-20 11:39:00,52.5,30.7,30.14,NW,325,1.1,1.1,43,0.00,,,0.01,742.00,VWS V14.01,2013-02-20 16:39:00,
2013-02-20 11:44:00,53.0,31.7,30.13,NNE,29,0.0,0.0,44,0.00,,,0.01,745.00,VWS V14.01,2013-02-20 16:44:00,
2013-02-20 11:49:00,53.3,29.7,30.13,NNE,23,0.0,1.1,40,0.00,,,0.01,754.00,VWS V14.01,2013-02-20 16:49:00,
2013-02-20 11:54:00,53.8,28.9,30.12,North,358,3.3,4.4,38,0.00,,,0.01,758.00,VWS V14.01,2013-02-20 16:54:00,
2013-02-20 11:59:00,54.0,28.4,30.12,NW,313,2.2,2.2,37,0.00,,,0.01,761.00,VWS V14.01,2013-02-20 16:59:00,
2013-02-20 12:04:00,54.0,29.6,30.11,SW,232,2.2,2.2,39,0.00,,,0.01,766.00,VWS V14.01,2013-02-20 17:04:00,
2013-02-20 12:09:00,54.2,27.9,30.11,NW,306,0.0,4.4,36,0.00,,,0.01,772.00,VWS V14.01,2013-02-20 17:09:00,
2013-02-20 12:14:00,54.5,30.1,30.11,West,281,1.1,1.1,39,0.00,,,0.01,775.00,VWS V14.01,2013-02-20 17:14:00,
2013-02-20 12:19:00,55.0,29.9,30.11,WSW,245,0.0,2.2,38,0.00,,,0.01,779.00,VWS V14.01,2013-02-20 17:19:00,
2013-02-20 12:24:00,55.2,29.4,30.11,North,358,3.3,3.3,37,0.00,,,0.01,779.00,VWS V14.01,2013-02-20 17:24:00,
2013-02-20 12:29:00,55.2,27.3,30.11,NE,54,0.0,2.2,34,0.00,,,0.01,779.00,VWS V14.01,2013-02-20 17:29:00,
2013-02-20 12:34:00,55.0,27.9,30.10,NNW,344,0.0,0.0,35,0.00,,,0.01,782.00,VWS V14.01,2013-02-20 17:34:00,
2013-02-20 12:39:00,55.7,30.5,30.10,NNE,28,2.2,4.4,38,0.00,,,0.01,780.00,VWS V14.01,2013-02-20 17:39:00,
2013-02-20 12:44:00,55.2,29.5,30.10,NW,305,3.3,3.3,37,0.00,,,0.01,780.00,VWS V14.01,2013-02-20 17:44:00,
2013-02-20 12:49:00,56.2,31.0,30.10,NW,316,0.0,2.2,38,0.00,,,0.01,782.00,VWS V14.01,2013-02-20 17:49:00,
2013-02-20 12:54:00,56.0,28.8,30.09,North,358,2.2,2.2,35,0.00,,,0.01,780.00,VWS V14.01,2013-02-20 17:54:00,
2013-02-20 12:59:00,56.0,29.5,30.09,SW,231,2.2,2.2,36,0.00,,,0.01,780.00,VWS V14.01,2013-02-20 17:59:00,
2013-02-20 13:04:00,56.7,32.0,30.09,South,183,4.4,6.6,39,0.00,,,0.01,780.00,VWS V14.01,2013-02-20 18:04:00,
2013-02-20 13:09:00,57.0,31.7,30.08,ESE,104,1.1,1.1,38,0.00,,,0.01,777.00,VWS V14.01,2013-02-20 18:09:00,
2013-02-20 13:14:00,57.5,30.0,30.08,SSW,207,3.3,3.3,35,0.00,,,0.01,773.00,VWS V14.01,2013-02-20 18:14:00,
2013-02-20 13:19:00,57.8,31.0,30.08,SSE,155,0.0,0.0,36,0.00,,,0.01,773.00,VWS V14.01,2013-02-20 18:19:00,
2013-02-20 13:24:00,58.5,31.7,30.07,SW,214,1.1,3.3,36,0.00,,,0.01,770.00,VWS V14.01,2013-02-20 18:24:00,
2013-02-20 13:29:00,57.8,29.7,30.07,SW,225,2.2,2.2,34,0.00,,,0.01,766.00,VWS V14.01,2013-02-20 18:29:00,
2013-02-20 13:34:00,58.3,31.5,30.07,SSW,193,1.1,2.2,36,0.00,,,0.01,765.00,VWS V14.01,2013-02-20 18:34:00,
2013-02-20 13:39:00,58.7,32.5,30.07,ESE,123,2.2,3.3,37,0.00,,,0.01,766.00,VWS V14.01,2013-02-20 18:39:00,
2013-02-20 13:44:00,58.0,29.9,30.07,South,187,1.1,2.2,34,0.00,,,0.01,589.00,VWS V14.01,2013-02-20 18:44:00,
2013-02-20 13:49:00,58.5,30.3,30.06,SE,126,0.0,0.0,34,0.00,,,0.01,728.00,VWS V14.01,2013-02-20 18:49:00,
2013-02-20 13:54:00,58.0,29.9,30.06,ESE,116,0.0,0.0,34,0.00,,,0.01,712.00,VWS V14.01,2013-02-20 18:54:00,
2013-02-20 13:59:00,58.7,28.1,30.06,SE,140,1.1,2.2,31,0.00,,,0.01,675.00,VWS V14.01,2013-02-20 18:59:00,
2013-02-20 14:04:00,58.5,27.1,30.05,West,278,2.2,2.2,30,0.00,,,0.01,693.00,VWS V14.01,2013-02-20 19:04:00,
2013-02-20 14:09:00,58.8,29.7,30.06,WSW,245,4.4,4.4,33,0.00,,,0.01,689.00,VWS V14.01,2013-02-20 19:09:00,
2013-02-20 14:14:00,59.2,31.5,30.05,West,270,2.2,2.2,35,0.00,,,0.01,696.00,VWS V14.01,2013-02-20 19:14:00,
2013-02-20 14:19:00,59.2,29.4,30.05,SSE,168,4.4,5.5,32,0.00,,,0.01,700.00,VWS V14.01,2013-02-20 19:19:00,
2013-02-20 14:24:00,58.8,31.2,30.05,South,171,5.5,5.5,35,0.00,,,0.01,693.00,VWS V14.01,2013-02-20 19:24:00,
2013-02-20 14:29:00,59.5,29.7,30.05,South,181,4.4,4.4,32,0.00,,,0.01,684.00,VWS V14.01,2013-02-20 19:29:00,
2013-02-20 14:34:00,59.8,30.7,30.05,NNW,340,0.0,0.0,33,0.00,,,0.01,668.00,VWS V14.01,2013-02-20 19:34:00,
2013-02-20 14:39:00,59.5,30.4,30.05,WNW,300,0.0,0.0,33,0.00,,,0.01,656.00,VWS V14.01,2013-02-20 19:39:00,
2013-02-20 14:44:00,59.8,29.1,30.05,South,173,0.0,0.0,31,0.00,,,0.01,647.00,VWS V14.01,2013-02-20 19:44:00,
2013-02-20 14:49:00,60.0,27.7,30.05,South,177,0.0,2.2,29,0.00,,,0.01,645.00,VWS V14.01,2013-02-20 19:49:00,
2013-02-20 14:54:00,59.2,28.6,30.05,West,262,0.0,0.0,31,0.00,,,0.01,624.00,VWS V14.01,2013-02-20 19:54:00,
2013-02-20 14:59:00,59.7,28.2,30.06,NW,306,0.0,0.0,30,0.00,,,0.01,584.00,VWS V14.01,2013-02-20 19:59:00,
2013-02-20 15:04:00,60.0,30.1,30.06,SW,233,4.4,4.4,32,0.00,,,0.01,603.00,VWS V14.01,2013-02-20 20:04:00,
2013-02-20 15:09:00,60.5,28.1,30.05,SSE,149,4.4,4.4,29,0.00,,,0.01,589.00,VWS V14.01,2013-02-20 20:09:00,
2013-02-20 15:14:00,61.0,31.7,30.05,SSW,200,3.3,3.3,33,0.00,,,0.01,573.00,VWS V14.01,2013-02-20 20:14:00,
2013-02-20 15:19:00,61.0,30.9,30.06,South,185,0.0,0.0,32,0.00,,,0.01,415.00,VWS V14.01,2013-02-20 20:19:00,
2013-02-20 15:24:00,60.7,29.9,30.05,SSW,198,0.0,0.0,31,0.00,,,0.01,503.00,VWS V14.01,2013-02-20 20:24:00,
2013-02-20 15:29:00,60.8,33.0,30.05,SW,214,2.2,3.3,35,0.00,,,0.01,522.00,VWS V14.01,2013-02-20 20:29:00,
2013-02-20 15:34:00,61.2,31.9,30.05,South,179,4.4,4.4,33,0.00,,,0.01,478.00,VWS V14.01,2013-02-20 20:34:00,
2013-02-20 15:39:00,60.3,30.4,30.06,South,177,1.1,1.1,32,0.00,,,0.01,380.00,VWS V14.01,2013-02-20 20:39:00,
2013-02-20 15:44:00,60.3,30.4,30.06,SE,125,3.3,3.3,32,0.00,,,0.01,366.00,VWS V14.01,2013-02-20 20:44:00,
2013-02-20 15:49:00,60.7,30.6,30.06,West,263,3.3,5.5,32,0.00,,,0.01,448.00,VWS V14.01,2013-02-20 20:49:00,
2013-02-20 15:54:00,60.7,32.2,30.06,WNW,296,2.2,2.2,34,0.00,,,0.01,466.00,VWS V14.01,2013-02-20 20:54:00,
2013-02-20 15:59:00,60.8,31.5,30.06,SW,221,0.0,0.0,33,0.00,,,0.01,385.00,VWS V14.01,2013-02-20 20:59:00,
2013-02-20 16:04:00,60.7,32.2,30.06,SW,223,1.1,1.1,34,0.00,,,0.01,283.00,VWS V14.01,2013-02-20 21:04:00,
2013-02-20 16:09:00,60.8,33.7,30.05,South,181,4.4,4.4,36,0.00,,,0.01,236.00,VWS V14.01,2013-02-20 21:09:00,
2013-02-20 16:14:00,60.8,32.2,30.05,SSW,193,2.2,2.2,34,0.00,,,0.01,269.00,VWS V14.01,2013-02-20 21:14:00,
2013-02-20 16:19:00,60.8,32.3,30.05,SSW,201,1.1,2.2,34,0.00,,,0.01,174.00,VWS V14.01,2013-02-20 21:19:00,
2013-02-20 16:24:00,60.2,33.1,30.05,SSW,206,0.0,0.0,36,0.00,,,0.01,272.00,VWS V14.01,2013-02-20 21:24:00,
2013-02-20 16:29:00,59.8,31.4,30.05,SE,146,0.0,0.0,34,0.00,,,0.01,163.00,VWS V14.01,2013-02-20 21:29:00,
2013-02-20 16:34:00,59.5,35.8,30.04,SE,135,0.0,1.1,41,0.00,,,0.01,123.00,VWS V14.01,2013-02-20 21:34:00,
2013-02-20 16:39:00,58.3,37.7,30.04,ESE,116,0.0,0.0,46,0.00,,,0.01,135.00,VWS V14.01,2013-02-20 21:39:00,
2013-02-20 16:44:00,57.7,37.6,30.05,ESE,114,0.0,1.1,47,0.00,,,0.01,109.00,VWS V14.01,2013-02-20 21:44:00,
2013-02-20 16:49:00,57.0,38.0,30.05,ESE,114,0.0,0.0,49,0.00,,,0.01,88.00,VWS V14.01,2013-02-20 21:49:00,
2013-02-20 16:54:00,56.8,38.8,30.05,ESE,114,0.0,0.0,51,0.00,,,0.01,79.00,VWS V14.01,2013-02-20 21:54:00,
2013-02-20 16:59:00,56.7,38.2,30.05,SSW,203,2.2,2.2,50,0.00,,,0.01,160.00,VWS V14.01,2013-02-20 21:59:00,
2013-02-20 17:04:00,57.2,37.1,30.06,SSE,164,1.1,2.2,47,0.00,,,0.01,250.00,VWS V14.01,2013-02-20 22:04:00,
2013-02-20 17:09:00,57.3,36.2,30.05,SW,219,2.2,2.2,45,0.00,,,0.01,206.00,VWS V14.01,2013-02-20 22:09:00,
2013-02-20 17:14:00,57.2,36.7,30.06,South,191,0.0,2.2,46,0.00,,,0.01,58.00,VWS V14.01,2013-02-20 22:14:00,
2013-02-20 17:19:00,57.0,36.9,30.06,South,190,2.2,4.4,47,0.00,,,0.01,51.00,VWS V14.01,2013-02-20 22:19:00,
2013-02-20 17:24:00,56.8,36.8,30.06,SSW,200,1.1,1.1,47,0.00,,,0.01,65.00,VWS V14.01,2013-02-20 22:24:00,
2013-02-20 17:29:00,56.5,37.6,30.07,ESE,114,0.0,3.3,49,0.00,,,0.01,53.00,VWS V14.01,2013-02-20 22:29:00,
2013-02-20 17:34:00,56.3,38.5,30.07,South,188,1.1,1.1,51,0.00,,,0.01,33.00,VWS V14.01,2013-02-20 22:34:00,
2013-02-20 17:39:00,56.0,38.2,30.07,South,171,3.3,3.3,51,0.00,,,0.01,21.00,VWS V14.01,2013-02-20 22:39:00,
2013-02-20 17:44:00,55.5,38.2,30.07,SSE,150,1.1,2.2,52,0.00,,,0.01,21.00,VWS V14.01,2013-02-20 22:44:00,
2013-02-20 17:49:00,55.0,39.2,30.07,SSE,150,0.0,0.0,55,0.00,,,0.01,18.00,VWS V14.01,2013-02-20 22:49:00,
2013-02-20 17:54:00,54.5,40.0,30.07,SSE,150,0.0,0.0,58,0.00,,,0.01,11.00,VWS V14.01,2013-02-20 22:54:00,
2013-02-20 17:59:00,53.3,39.8,30.08,SSE,150,0.0,0.0,60,0.00,,,0.01,9.00,VWS V14.01,2013-02-20 22:59:00,
2013-02-20 18:04:00,53.2,40.9,30.08,SSE,150,0.0,0.0,63,0.00,,,0.01,5.00,VWS V14.01,2013-02-20 23:04:00,
2013-02-20 18:09:00,52.5,41.0,30.08,SSE,150,0.0,0.0,65,0.00,,,0.01,0.00,VWS V14.01,2013-02-20 23:09:00,
2013-02-20 18:14:00,52.2,41.2,30.08,SSE,150,0.0,0.0,66,0.00,,,0.01,0.00,VWS V14.01,2013-02-20 23:14:00,
2013-02-20 18:19:00,51.8,41.2,30.09,SSE,150,0.0,0.0,67,0.00,,,0.01,0.00,VWS V14.01,2013-02-20 23:19:00,
2013-02-20 18:24:00,50.8,41.0,30.09,SSE,150,0.0,0.0,69,0.00,,,0.01,0.00,VWS V14.01,2013-02-20 23:24:00,
2013-02-20 18:29:00,50.3,41.3,30.09,SSE,150,0.0,0.0,71,0.00,,,0.01,0.00,VWS V14.01,2013-02-20 23:29:00,
2013-02-20 18:34:00,50.8,41.1,30.09,SSE,150,0.0,0.0,69,0.00,,,0.01,0.00,VWS V14.01,2013-02-20 23:34:00,
2013-02-20 18:39:00,51.0,42.0,30.09,SSE,150,0.0,0.0,71,0.00,,,0.01,0.00,VWS V14.01,2013-02-20 23:39:00,
2013-02-20 18:44:00,50.5,41.0,30.10,South,186,1.1,1.1,70,0.00,,,0.01,0.00,VWS V14.01,2013-02-20 23:44:00,
2013-02-20 18:49:00,51.3,40.4,30.09,SSW,205,1.1,1.1,66,0.00,,,0.01,0.00,VWS V14.01,2013-02-20 23:49:00,
2013-02-20 18:54:00,52.3,39.7,30.09,SSW,209,0.0,0.0,62,0.00,,,0.01,0.00,VWS V14.01,2013-02-20 23:54:00,
2013-02-20 18:59:00,52.3,40.1,30.09,SSW,210,0.0,0.0,63,0.00,,,0.01,0.00,VWS V14.01,2013-02-20 23:59:00,
2013-02-20 19:04:00,52.5,40.6,30.10,SSE,156,0.0,0.0,64,0.00,,,0.01,0.00,VWS V14.01,2013-02-21 00:04:00,
2013-02-20 19:09:00,52.0,39.8,30.10,SSE,166,0.0,1.1,63,0.00,,,0.01,0.00,VWS V14.01,2013-02-21 00:09:00,
2013-02-20 19:14:00,52.0,41.4,30.10,SSE,166,0.0,0.0,67,0.00,,,0.01,0.00,VWS V14.01,2013-02-21 00:14:00,
2013-02-20 19:19:00,51.3,41.5,30.10,SSE,166,0.0,0.0,69,0.00,,,0.01,0.00,VWS V14.01,2013-02-21 00:19:00,
2013-02-20 19:24:00,51.2,41.0,30.10,South,172,0.0,0.0,68,0.00,,,0.01,0.00,VWS V14.01,2013-02-21 00:24:00,
2013-02-20 19:29:00,51.5,41.3,30.10,South,172,0.0,1.1,68,0.00,,,0.01,0.00,VWS V14.01,2013-02-21 00:29:00,
2013-02-20 19:34:00,52.0,40.2,30.10,South,172,0.0,0.0,64,0.00,,,0.01,0.00,VWS V14.01,2013-02-21 00:34:00,
2013-02-20 19:38:00,51.5,41.7,30.10,South,172,0.0,0.0,69,0.00,,,0.01,0.00,VWS V14.01,2013-02-21 00:38:00,
2013-02-20 19:44:00,51.2,42.1,30.10,South,172,0.0,0.0,71,0.00,,,0.01,0.00,VWS V14.01,2013-02-21 00:44:00,
2013-02-20 19:49:00,50.8,42.2,30.10,South,172,0.0,0.0,72,0.00,,,0.01,0.00,VWS V14.01,2013-02-21 00:49:00,
2013-02-20 19:53:00,50.8,41.3,30.10,South,172,0.0,0.0,70,0.00,,,0.01,0.00,VWS V14.01,2013-02-21 00:53:00,
2013-02-20 19:58:00,50.7,42.3,30.10,South,172,0.0,0.0,73,0.00,,,0.01,0.00,VWS V14.01,2013-02-21 00:58:00,
2013-02-20 20:03:00,50.5,41.8,30.09,East,87,0.0,1.1,72,0.00,,,0.01,0.00,VWS V14.01,2013-02-21 01:03:00,
2013-02-20 20:08:00,50.2,42.3,30.09,East,87,0.0,0.0,74,0.00,,,0.01,0.00,VWS V14.01,2013-02-21 01:08:00,
2013-02-20 20:13:00,50.2,41.6,30.09,East,87,0.0,0.0,72,0.00,,,0.01,0.00,VWS V14.01,2013-02-21 01:13:00,
2013-02-20 20:18:00,50.2,41.9,30.08,East,88,0.0,1.1,73,0.00,,,0.01,0.00,VWS V14.01,2013-02-21 01:18:00,
2013-02-20 20:23:00,50.2,41.2,30.09,SSE,162,3.3,5.5,71,0.00,,,0.01,0.00,VWS V14.01,2013-02-21 01:23:00,
2013-02-20 20:28:00,50.5,40.7,30.07,South,182,1.1,1.1,69,0.00,,,0.01,0.00,VWS V14.01,2013-02-21 01:28:00,
2013-02-20 20:33:00,50.5,39.6,30.08,SSW,194,0.0,1.1,66,0.00,,,0.01,0.00,VWS V14.01,2013-02-21 01:33:00,
2013-02-20 20:38:00,50.7,39.7,30.07,SSE,164,0.0,2.2,66,0.00,,,0.01,0.00,VWS V14.01,2013-02-21 01:38:00,
2013-02-20 20:43:00,50.5,39.2,30.07,WSW,237,5.5,5.5,65,0.00,,,0.01,0.00,VWS V14.01,2013-02-21 01:43:00,
2013-02-20 20:48:00,50.5,38.8,30.08,SW,234,0.0,2.2,64,0.00,,,0.01,0.00,VWS V14.01,2013-02-21 01:48:00,
2013-02-20 20:53:00,50.5,38.4,30.08,SSW,195,1.1,4.4,63,0.00,,,0.01,0.00,VWS V14.01,2013-02-21 01:53:00,
2013-02-20 20:58:00,50.5,38.4,30.08,SSW,213,2.2,3.3,63,0.00,,,0.01,0.00,VWS V14.01,2013-02-21 01:58:00,
2013-02-20 21:03:00,50.5,38.3,30.08,South,189,3.3,3.3,63,0.00,,,0.01,0.00,VWS V14.01,2013-02-21 02:03:00,
2013-02-20 21:08:00,50.3,38.2,30.08,SSW,203,0.0,1.1,63,0.00,,,0.01,0.00,VWS V14.01,2013-02-21 02:08:00,
2013-02-20 21:13:00,50.2,38.2,30.07,SSW,205,1.1,1.1,63,0.00,,,0.01,0.00,VWS V14.01,2013-02-21 02:13:00,
2013-02-20 21:18:00,50.2,38.1,30.08,South,186,1.1,3.3,63,0.00,,,0.01,0.00,VWS V14.01,2013-02-21 02:18:00,
2013-02-20 21:23:00,50.0,38.0,30.08,South,187,0.0,0.0,63,0.00,,,0.01,0.00,VWS V14.01,2013-02-21 02:23:00,
2013-02-20 21:28:00,50.0,38.3,30.08,SSW,193,0.0,2.2,64,0.00,,,0.01,0.00,VWS V14.01,2013-02-21 02:28:00,
2013-02-20 21:33:00,49.8,38.1,30.09,SSW,197,0.0,1.1,64,0.00,,,0.01,0.00,VWS V14.01,2013-02-21 02:33:00,
2013-02-20 21:38:00,49.7,38.0,30.09,SSW,208,0.0,0.0,64,0.00,,,0.01,0.00,VWS V14.01,2013-02-21 02:38:00,
2013-02-20 21:43:00,49.5,38.2,30.09,SSW,210,0.0,0.0,65,0.00,,,0.01,0.00,VWS V14.01,2013-02-21 02:43:00,
2013-02-20 21:48:00,49.0,38.6,30.09,SSW,210,0.0,0.0,67,0.00,,,0.01,0.00,VWS V14.01,2013-02-21 02:48:00,
2013-02-20 21:53:00,48.7,39.7,30.09,SSW,210,0.0,0.0,71,0.00,,,0.01,0.00,VWS V14.01,2013-02-21 02:53:00,
2013-02-20 21:58:00,48.5,39.5,30.09,SSE,166,0.0,0.0,71,0.00,,,0.01,0.00,VWS V14.01,2013-02-21 02:58:00,
2013-02-20 22:03:00,48.2,39.7,30.09,SSE,166,0.0,0.0,72,0.00,,,0.01,0.00,VWS V14.01,2013-02-21 03:03:00,
2013-02-20 22:08:00,47.8,39.6,30.09,SSE,166,0.0,0.0,73,0.00,,,0.01,0.00,VWS V14.01,2013-02-21 03:08:00,
2013-02-20 22:13:00,47.2,39.7,30.09,SSE,166,0.0,0.0,75,0.00,,,0.01,0.00,VWS V14.01,2013-02-21 03:13:00,
2013-02-20 22:18:00,47.0,39.5,30.10,South,172,0.0,0.0,75,0.00,,,0.01,0.00,VWS V14.01,2013-02-21 03:18:00,
2013-02-20 22:23:00,46.3,39.5,30.10,South,172,0.0,0.0,77,0.00,,,0.01,0.00,VWS V14.01,2013-02-21 03:23:00,
2013-02-20 22:28:00,46.0,39.8,30.10,South,172,0.0,0.0,79,0.00,,,0.01,0.00,VWS V14.01,2013-02-21 03:28:00,
2013-02-20 22:33:00,45.3,39.5,30.09,South,172,0.0,0.0,80,0.00,,,0.01,0.00,VWS V14.01,2013-02-21 03:33:00,
2013-02-20 22:38:00,44.8,39.1,30.09,South,172,0.0,0.0,80,0.00,,,0.01,0.00,VWS V14.01,2013-02-21 03:38:00,
2013-02-20 22:43:00,44.5,39.0,30.09,South,172,0.0,0.0,81,0.00,,,0.01,0.00,VWS V14.01,2013-02-21 03:43:00,
2013-02-20 22:48:00,44.0,38.8,30.09,South,172,0.0,0.0,82,0.00,,,0.01,0.00,VWS V14.01,2013-02-21 03:48:00,
2013-02-20 22:53:00,43.8,39.3,30.09,South,172,0.0,0.0,84,0.00,,,0.01,0.00,VWS V14.01,2013-02-21 03:53:00,
2013-02-20 22:58:00,43.3,38.5,30.09,South,172,0.0,0.0,83,0.00,,,0.01,0.00,VWS V14.01,2013-02-21 03:58:00,
2013-02-20 23:03:00,43.0,38.5,30.09,South,172,0.0,0.0,84,0.00,,,0.01,0.00,VWS V14.01,2013-02-21 04:03:00,
2013-02-20 23:08:00,42.8,38.7,30.09,South,172,0.0,0.0,85,0.00,,,0.01,0.00,VWS V14.01,2013-02-21 04:08:00,
2013-02-20 23:13:00,42.5,38.3,30.09,South,172,0.0,0.0,85,0.00,,,0.01,0.00,VWS V14.01,2013-02-21 04:13:00,
2013-02-20 23:18:00,42.2,38.4,30.09,South,172,0.0,0.0,86,0.00,,,0.01,0.00,VWS V14.01,2013-02-21 04:18:00,
2013-02-20 23:23:00,42.3,38.8,30.09,South,172,0.0,0.0,87,0.00,,,0.01,0.00,VWS V14.01,2013-02-21 04:23:00,
2013-02-20 23:28:00,42.2,38.9,30.09,South,172,0.0,0.0,88,0.00,,,0.01,0.00,VWS V14.01,2013-02-21 04:28:00,
2013-02-20 23:33:00,41.5,38.2,30.09,South,172,0.0,0.0,88,0.00,,,0.01,0.00,VWS V14.01,2013-02-21 04:33:00,
2013-02-20 23:38:00,41.2,38.2,30.09,South,172,0.0,0.0,89,0.00,,,0.01,0.00,VWS V14.01,2013-02-21 04:38:00,
2013-02-20 23:43:00,41.0,38.0,30.10,South,172,0.0,0.0,89,0.00,,,0.01,0.00,VWS V14.01,2013-02-21 04:43:00,
2013-02-20 23:48:00,40.8,37.8,30.10,South,172,0.0,0.0,89,0.00,,,0.01,0.00,VWS V14.01,2013-02-21 04:48:00,
2013-02-20 23:53:00,40.7,37.7,30.10,South,172,0.0,0.0,89,0.00,,,0.01,0.00,VWS V14.01,2013-02-21 04:53:00,
2013-02-20 23:58:00,40.5,37.8,30.10,South,172,0.0,0.0,90,0.00,,,0.01,0.00,VWS V14.01,2013-02-21 04:58:00,